+ View the NASA Portal
+ Center for Near-Earth Object Studies
IMPORTANT:
The SSD Announcement email list is now available. Major changes are coming in the near future, including possible hostname and/or URL changes. To be notified of such changes, subscribe to this email list.
Please visit
this page
for more details.
Don't show this message again
JPL Small-Body Database Browser
Search:
[
help
]
266496 (2008 DU67)
Classification:
Main-belt Asteroid
SPK-ID:
2266496
[
Ephemeris
|
Orbit Diagram
|
Orbital Elements
|
Mission Design
|
Physical Parameters
|
Discovery Circumstances
|
Close-Approach Data
]
[ show orbit diagram ]
Orbital Elements at Epoch 2458600.5 (2019-Apr-27.0) TDB
Reference:
JPL 11
(heliocentric ecliptic J2000)
Element
Value
Uncertainty (1-sigma)
Units
e
.1073419917396797
9.1352e-08
a
2.400389739882531
2.7565e-08
au
q
2.142727124252048
2.1257e-07
au
i
5.342771340623252
8.4993e-06
deg
node
309.0762824179079
7.647e-05
deg
peri
358.8487834065255
0.00010203
deg
M
243.794390413581
7.9539e-05
deg
t
p
2459038.975833169304
(2020-Jul-08.47583317)
0.00030474
TDB
period
1358.379345908938
3.72
2.3398e-05
6.406e-08
d
yr
n
.2650216974251119
4.565e-09
deg/d
Q
2.658052355513013
3.0523e-08
au
Orbit Determination Parameters
# obs. used (total)
149
data-arc span
8980 days (24.59 yr)
first obs. used
1994-09-09
last obs. used
2019-04-11
planetary ephem.
DE431
SB-pert. ephem.
SB431-N16
condition code
0
norm. resid. RMS
.61668
source
ORB
producer
Otto Matic
solution date
2019-Jul-14 10:44:58
Additional Information
Earth MOID
= 1.12714 au
Jupiter MOID
= 2.55225 au
T_jup
= 3.512
[ show covariance matrix ]
[
Ephemeris
|
Orbit Diagram
|
Orbital Elements
|
Mission Design
|
Physical Parameters
|
Discovery Circumstances
|
Close-Approach Data
]
Physical Parameter Table
Parameter
Symbol
Value
Units
Sigma
Reference
Notes
absolute magnitude
H
16.9
n/a
MPO433729
266496 (2008 DU67)
Discovered 2008-Feb-29 by Spacewatch at Kitt Peak
Reference:
20110218/Numbers.arc
Last Updated:
2011-02-22
[ show close-approach data ]
[
Ephemeris
|
Orbit Diagram
|
Orbital Elements
|
Mission Design
|
Physical Parameters
|
Discovery Circumstances
|
Close-Approach Data
]
2019-Dec-11 03:25 UT
(server date/time)
Site Manager:
Ryan S. Park
Webmaster
:
Alan B. Chamberlin